Location: downtown San Diego
(32.7310°N, 117.1990°W)
Time: 08:22:30
(UTC-07:00)

Cosmos 1603 - Pass Details

Date: 14 June 2018
Orbit: 830 x 861 km, 71.0° (Epoch: 17 September)

Event Time Altitude Azimuth Distance (km) Brightness Sun altitude
Rises 21:39:42 0° 340° (NNW) 3,412 8.0 -18.0°
Reaches altitude 10° 21:42:09 10° 342° (NNW) 2,478 7.1 -18.4°
Maximum altitude 21:47:51 82° 69° (ENE) 866 3.6 -19.2°
Enters shadow 21:50:25 35° 154° (SSE) 1,357 4.2 -19.6°
